THORAD AGENA D DEB, 4643

Orbit data source: Space-Track

THORAD AGENA D DEB, 4643 is space debris in SSO originally from a launch on Wed, 08 Apr 1970 UTC launched from the Air Force Western Test Range (AFWTR). Debris objects in space refer to the collection of defunct objects orbiting the Earth. Examples of debris include non-operational satellites, rocket bodies, and fragments generated from explosions, collisions, or faulty payload assembly.

Loading next visibility...
Identifier
4643, 1970-025AB
Orbit
SSO
Country
Flag of USUS
Related business
Manufacturer
Unknown
Mission
Spacecraft
Bus & Motor
Unknown
Mass
Unknown
Launch date (UTC)
1970-04-08 (56 years ago)
Launch vehicle
Unknown
Launch site
Air Force Western Test Range (AFWTR)
Object type
Payload
Rocket body
Debris
Shape & HBR
Unknown shape, 0.2 m
Radar Cross Section
Small (<0.1 m²)

Expand to show TLE details & history
Last TLE update: 12 hours ago

TLE from 12 hours ago
0 THORAD AGENA D DEB
1 04643U 70025AB  26126.31798262  .00000134  00000-0  25409-3 0  9997
2 04643  99.3937 336.7549 0010399 331.5727 205.8965 13.55230195766138
Epoch: 2026-05-06T07:37Z
TLE epoch observation values (Epoch: 2026-05-06T07:37:53.698Z)
Latitude
2.45051°
Longitude
178.50453°
Altitude
1,062.551 km
Speed
7.317 km/s
True Right ascension
10h 28m 38s
True Declination
2° 26' 11"
Sunlit
Object was in daylight at epoch
Visualization orbit readout
Latitude
Unknown
Longitude
Unknown
Altitude
Unknown
Speed
Unknown
Apparent Right ascension
Unknown
Apparent Declination
Unknown
Sunlit
N/A
Visualization observer readout
Local Sidereal Time
03:06:48
Azimuth
Unknown
Elevation
Unknown
Doppler factor
Unknown
Orbital elements
Apogee altitude
1,058.081 km
Perigee altitude
1,042.631 km
Semi-major axis
7,428.493 km
Eccentricity
0.00104
Inclination
99.3937°
RAAN
336.7549°
Arg. of periapsis
331.5727°
True anomaly
205.84452°
Mean anomaly
205.8965°
Eccentric anomaly
205.8705°
Mean motion
3.38994 °/min
Orbital period
106.2 mins
BSTAR
0.00025409

Documentation

Showing up to 5 results
|